Regional Weather Roundup
Issued by NWS Upton, NY

Current Version | Previous Version | Text Only | Print | Product List | Glossary On
Versions: 1 2 3 4 5 6 7 8 9 10 11 12 13 14 15 16 17 18 19 20 21 22 23 24 25 26 27
000
ASUS41 KOKX 242209
RWROKX

REGIONAL WEATHER ROUNDUP
NATIONAL WEATHER SERVICE NEW YORK NY
600 PM EDT MON APR 24 2017

NOTE: "FAIR" INDICATES FEW OR NO CLOUDS BELOW 12,000 FEET WITH NO
SIGNIFICANT WEATHER AND/OR OBSTRUCTIONS TO VISIBILITY.

NYZ071-072-176-178-NJZ106-104-242300-
NEW YORK CITY METRO AREA

CITY           SKY/WX    TMP DP  RH WIND       PRES   REMARKS
Central Park   CLOUDY    59  42  53 VRB6      30.16F
Wall St Helipt CLOUDY    55  43  62 SE8       30.15S
Bronx Bot Gard   N/A     55  43  62 CALM      30.16R
LaGuardia APRT CLOUDY    58  43  57 NE8       30.13F
Kennedy INTL   LGT RAIN  55  43  63 E9        30.15F
Breezy Point     N/A     50 N/A N/A SE9         N/A
Newark/Liberty CLOUDY    56  41  57 SE5       30.14S
Teterboro      CLOUDY    59  42  53 SE6       30.12F
$$

NYZ177-179-078>081-242300-
LONG ISLAND NEW YORK

CITY           SKY/WX    TMP DP  RH WIND       PRES   REMARKS
Jones Beach      N/A     52 N/A N/A E10         N/A
Matinecock PT    N/A     54 N/A N/A E5          N/A
Farmingdale    CLOUDY    53  44  71 SE8       30.15S
MacArthur/ISP  CLOUDY    53  43  68 E9        30.15S
Shirley        CLOUDY    52  40  63 VRB3      30.16S
Mt Sinai Harb    N/A    N/A N/A N/A CALM        N/A
Westhampton    CLOUDY    51  40  65 VRB5      30.18S
East Hampton   CLOUDY    50  44  78 E6        30.17S
Montauk          N/A     51  45  79 CALM      30.19S
$$

NYZ052-065-067-242300-
HUDSON VALLEY

CITY           SKY/WX    TMP DP  RH WIND       PRES   REMARKS
White Plains   LGT RAIN  55  40  56 E7        30.13F
Larchmont Harb   N/A     52 N/A N/A N7          N/A
Croton O-T Hud   N/A     61 N/A N/A SE1         N/A
Newburgh       PTSUNNY   63  43  48 VRB6      30.13S
Montgomery     CLOUDY    64  38  38 S3        30.11S
Poughkeepsie   MOSUNNY   65  37  35 SE6       30.11R
Albany         MOSUNNY   73  33  23 VRB3      30.09F
$$

NJZ001-105-106-008-010-013-015-019>022-104-242300-
NEW JERSEY

CITY           SKY/WX    TMP DP  RH WIND       PRES   REMARKS
Newark/Liberty CLOUDY    56  41  57 SE5       30.14S
Teterboro      CLOUDY    59  42  53 SE6       30.12F
Caldwell       LGT RAIN  60  45  57 S7        30.14R
Somerville     CLOUDY    57  43  59 SE5       30.11S
Linden         CLOUDY    55  38  53 S3        30.15R
Sussex         CLOUDY    63  33  32 SE7       30.12S
Andover          N/A     63  31  30 VRB5      30.11F
Trenton        CLOUDY    55  40  56 E12       30.10F
Millville      CLOUDY    56  49  77 NE16      30.05F
Atlantic City  CLOUDY    53  48  83 NE13      30.07F
Wrightstown    CLOUDY    55  42  61 NE13      30.08S
Toms River     CLOUDY    53  45  74 NE14      30.12F
Belmar         CLOUDY    51  43  74 NE9       30.14S
$$

PAZ047>061-062-071-242300-
EASTERN PENNSYLVANIA

CITY           SKY/WX    TMP DP  RH WIND       PRES   REMARKS
Philadelphia   CLOUDY    57  41  55 E15       30.09S
Allentown      CLOUDY    59  40  49 E13       30.10F
Scranton       CLOUDY    65  40  39 SE8       30.08F
$$

CTZ002-004>006-009-010-012-RIZ004-006-007-MAZ004-011-015-242300-
SOUTHERN NEW ENGLAND
 IN CT

CITY           SKY/WX    TMP DP  RH WIND       PRES   REMARKS
Bradley INTL   CLOUDY    66  42  41 S13       30.13R
Hartford       CLOUDY    63  41  44 S7        30.14R
Danbury        CLOUDY    59  37  44 SE10      30.14S
Wtrbury/Oxford CLOUDY    57  34  41 S6        30.16R
Bridgeport     CLOUDY    55  43  63 E9        30.15F
Meriden        CLOUDY    62  38  40 S7        30.15S
New Haven      CLOUDY    52  42  69 E7        30.16S
Chester          N/A     54  36  50 E6        30.16S
Groton         CLOUDY    49  44  83 SE6       30.18S
Wilimantic     CLOUDY    62  38  40 S5        30.16R

 IN RI

CITY           SKY/WX    TMP DP  RH WIND       PRES   REMARKS
Providence     CLOUDY    52  44  74 S9        30.18R
Block Island   CLOUDY    49  46  90 E7        30.19S
Westerly       CLOUDY    50  45  83 SE6       30.19R
 IN MA

CITY           SKY/WX    TMP DP  RH WIND       PRES   REMARKS
Boston         PTSUNNY   61  46  57 E10       30.14S
Worcester      MOSUNNY   66  37  34 S14G21    30.14R
Westfield      MOSUNNY   71  38  29 S14       30.10S
Provincetown   MOSUNNY   54  41  61 S12       30.19R
Nantucket      PTSUNNY   49  43  80 SE8       30.20S
$$

ANZ330-335-338-340-345-350-353-355-242300-
COASTAL MARINE OBSERVATIONS


STATION/POSITION TIME  SKY/WX   TEMP    WIND        PRES    VSBY  WAVE
                                AIR SEA DIR/SP/G                  HT/PER
                 (UTC)          (F)     (DEG/KT/KT) (MB)    (MI)  (FT/S)
NY HARB ENTRANCE 2150            49 50   80/ 10/ 12 1020.9          3/ 9
20 S FIRE ISLAND 2150            48 48   50/ 14/ 17 1019.9          3/ 9
GREAT SOUTH BAY  2130            51 56   80/ 12/ 14   N/A
23 SSW MONTAUK P 2150            47 46              1021.6          2/11
15 E BARNEGAT LI 2130               50                N/A           4/11
HUDSON CANYON    2050            49 47   70/ 16/ 17 1018.7          4/11
KINGS POINT      2130            55 48   60/  3/  4 1020.4
EXECUTION ROCKS  NOT AVBL
CENTRAL LI SOUND NOT AVBL
EASTERN LI SOUND NOT AVBL
ROBBINS REEF     2130            54     130/  8/  9 1020.8
$$


>>>>>>>>>>>>>>>>>>>>>>>>>>>> KEY <<<<<<<<<<<<<<<<<<<<<<<<<<<
>                                                          <
>     SKY/WX - Sky Condition/Present Weather               <
>     TMP    - Temperature in Fahrenheit                   <
>     DP     - Dew Point in Fahrenheit                     <
>     RH     - Relative Humidity in Percent                <
>     WIND   - Direction (from) and Speed in MPH           <
>     PRES   - Mean Sea Level Pressure (inches of Hg)      <
>     WCI    - Wind Chill Index                            <
>     VSB    - VISIBILITY IN MILES                         <
>     HX     - HEAT INDEX                                  <
>     TC     - TEMPERATURE IN CELSIUS                      <
>     VRB    - VARIABLE WIND DIRECTION                     <
>                                                          <
>>>>>>>>>>>>>>>>>>>>>>>>>>>> KEY <<<<<<<<<<<<<<<<<<<<<<<<<<<




USA.gov is the U.S. government's official web portal to all federal, state and local government web resources and services.